Regional Weather Roundup
Issued by NWS Glasgow, MT

Home | Current Version | Previous Version | Text Only | Print | Product List | Glossary On
Versions: 1 2 3 4 5 6 7 8 9 10 11 12 13 14 15 16 17 18 19 20 21 22 23 24 25 26 27 28 29 30 31 32 33 34 35 36 37 38 39 40 41 42 43 44 45 46 47 48 49 50
000
ASUS45 KGGW 211515
RWRGGW
HOURLY WEATHER ROUNDUP FOR NORTHEAST MONTANA
NATIONAL WEATHER SERVICE GLASGOW MONTANA
900 AM MDT TUE APR 21 2015

NOTE: "FAIR" INDICATES FEW OR NO CLOUDS BELOW 12,000 FEET WITH NO
SIGNIFICANT WEATHER AND/OR OBSTRUCTIONS TO VISISBILITY.

NORTHEAST MONTANA


CITY           SKY/WX    TMP DP  RH WIND       PRES   REMARKS
GLASGOW        SUNNY     40  26  57 E15       29.94R
PLENTYWOOD       N/A     37  22  54 NE7         N/A
WOLF POINT     SUNNY     40  27  59 E13G20    29.96R
JORDAN           N/A     43  25  49 NE10      29.90R
WINNETT          N/A     54  27  35 NE3G12      N/A
SIDNEY         MOSUNNY   39  25  56 NE6       29.95R
GLENDIVE       SUNNY     39  23  52 NE12      29.93R
MALTA            N/A     41  26  55 E5          N/A
SCOBEY           N/A     38  23  55 NE6       29.94R
OPHEIM           N/A     32  28  86 E6        29.87R

FORT PECK REPORTS


CITY           SKY/WX    TMP DP  RH WIND       PRES   REMARKS
FORT PECK        N/A     40  28  62 E13G21      N/A
THE PINES        N/A     41  28  60 E9          N/A

SOUTHEAST MONTANA


CITY           SKY/WX    TMP DP  RH WIND       PRES   REMARKS
BILLINGS       PTSUNNY   47  30  51 SW10      29.90R
MILES CITY     SUNNY     47  23  38 NE13      29.87R
BAKER          SUNNY     37  22  54 E16       29.88R
LIVINGSTON     SUNNY     45  28  51 NW9       29.91S

CENTRAL MONTANA


CITY           SKY/WX    TMP DP  RH WIND       PRES   REMARKS
HAVRE          SUNNY     49  31  49 CALM      29.88R
LEWISTOWN      MOSUNNY   51  30  44 SE5       29.90R
GREAT FALLS    SUNNY     46  31  55 SW8       29.89S
CUT BANK       SUNNY     50  31  48 W3        29.89R
HELENA         PTSUNNY   46  28  49 N3        29.91S
BUTTE          SUNNY     39  26  59 CALM      29.94S
BOZEMAN        SUNNY     46  30  53 CALM      29.92S

WESTERN MONTANA


CITY           SKY/WX    TMP DP  RH WIND       PRES   REMARKS
MISSOULA       SUNNY     43  34  70 SE3       29.93S
KALISPELL      NOT AVBL

NORTH DAKOTA


CITY           SKY/WX    TMP DP  RH WIND       PRES   REMARKS
WILLISTON      SUNNY     39  24  55 N7        29.95R
DICKINSON      PTSUNNY   35  24  64 NE10      29.87R
MINOT          CLOUDY    34  23  64 N17G25    29.92R
BISMARCK       MOSUNNY   36  26  67 N14G23    29.88S

SOUTHERN SASKATCHEWAN


CITY           SKY/WX    TMP DP  RH WIND       PRES   REMARKS
REGINA         MOSUNNY   36  25  64 NE7       30.01R
MOOSE JAW      MOSUNNY   36  27  69 S3        30.02R
ESTEVAN        MOSUNNY   34  27  75 NE9G17    29.97R
SWIFT CURRENT  SUNNY     37  28  70 E15       29.95R




USA.gov is the U.S. government's official web portal to all federal, state and local government web resources and services.